Find Starlink 5383

NORAD ID: 54827 Int'l Des: 2022-177 Owner: SPXS Country: US Constellation: starlink operational
LEOCIRCULAR

Current View

Loading 3D Globe...

About Starlink 5383

Starlink 5383 (NORAD 54827) is a starlink constellation satellite (v1.5) launched Dec 28, 2022 by SPXS of US. It operates in LEO, CIRCULAR orbit with a mass of 305.00 kg.

About Starlink 5383

Description loading...

Upcoming Passes

Passes for default location (London). Set your location on the main map for personalized predictions.

Altitude History

Loading altitude history...

Two-Line Element Set

1 54827U 22177H 26166.65306018 .00000522 00000-0 28510-4 0 9994
2 54827 43.0036 302.9810 0001465 274.4336 85.6348 15.27579496191901
Epoch: Jun 15, 2026 • Age: 14 hours

Current Status

Altitude 488.5 km
Velocity 7.62 km/s
Sub-Earth Point -24.56°S, 166.86°E
Launch Date Dec 28, 2022
Age 3.4 years
Type internet

Technical Details

Classification Payload
Mass 305.00 kg
Dry Mass 290.00 kg
Total Mass 305.00 kg
Length 0.20 m
Diameter 2.80 m
Span 9.00 m
Shape Box + pan
Manufacturer SPXS
Bus Type Starlink
Phase Status In Orbit
Owner/State SPXS/US

Most Searched